EW8436 Weather Reports


time (UTC)temp
C
wind
direction
speed
KPH
gust
KPH
rain 1hr
cm
rain 24hr
cm
rain mn
cm
humidity
%
barometer
mb
20260903043137 25 218 1.6 3.2 0.00 0.00 0.00 80 1016.7
20260903041544 25 219 1.6 4.8 0.00 0.00 0.00 80 1016.8
20260903040047 25 184 1.6 4.8 0.00 0.00 0.00 80 1016.7
20260903034541 25 219 0.0 3.2 0.00 0.00 0.00 80 1016.6
20260903033049 25 192 1.6 4.8 0.00 0.00 0.00 80 1016.7
20260903031543 26 227 1.6 4.8 0.00 0.00 0.00 80 1017.1
20260903030040 26 0 0.0 3.2 0.00 0.00 0.00 80 1017.2
20260903024546 26 223 0.0 3.2 0.00 0.00 0.00 80 1017.2
20260903023041 26 0 0.0 3.2 0.00 0.00 0.00 80 1017.3
20260903021541 26 209 0.0 3.2 0.00 0.00 0.00 79 1017.4
20260903020042 26 360 0.0 3.2 0.00 0.00 0.00 79 1017.4
20260903014547 27 218 0.0 4.8 0.00 0.00 0.00 79 1017.3
20260903013050 27 215 0.0 3.2 0.00 0.00 0.00 78 1017.2
20260903011539 27 213 0.0 3.2 0.00 0.00 0.00 78 1017.2
20260903010042 27 0 0.0 4.8 0.00 0.00 0.00 78 1016.8
20260903004539 27 0 0.0 3.2 0.00 0.00 0.00 77 1016.7
20260903003041 28 252 0.0 1.6 0.00 0.00 0.00 75 1016.6
20260903001544 29 0 0.0 0.0 0.00 0.00 0.00 72 1016.7
20260903000039 30 0 0.0 1.6 0.00 0.00 0.00 70 1016.7
20260902234540 30 0 0.0 1.6 0.00 0.00 0.00 68 1016.6
20260902233043 31 0 0.0 6.4 0.00 0.00 0.00 66 1016.6
20260902231543 31 0 0.0 4.8 0.00 0.00 0.00 64 1016.5
20260902230038 32 0 0.0 4.8 0.00 0.00 0.00 64 1016.6
20260902224600 32 265 1.6 4.8 0.00 0.00 0.00 59 1016.7
20260902223044 32 360 1.6 4.8 0.00 0.00 0.00 59 1016.6
20260902221545 33 268 1.6 6.4 0.00 0.00 0.00 56 1016.7
20260902220050 33 360 1.6 9.7 0.00 0.00 0.00 55 1016.7
20260902214540 33 264 1.6 8.0 0.00 0.00 0.00 53 1016.9
20260902213039 33 360 3.2 9.7 0.00 0.00 0.00 53 1017.0
20260902211544 33 360 1.6 6.4 0.00 0.00 0.00 56 1017.0
20260902210045 33 360 3.2 9.7 0.00 0.00 0.00 54 1017.3
20260902204541 33 0 3.2 16.1 0.00 0.00 0.00 55 1017.3
20260902203039 33 360 3.2 14.5 0.00 0.00 0.00 55 1017.4
20260902201601 33 360 3.2 12.9 0.00 0.00 0.00 55 1017.4
20260902200103 33 360 4.8 14.5 0.00 0.00 0.00 55 1017.6
20260902194538 32 360 4.8 12.9 0.00 0.00 0.00 55 1017.6
20260902193038 33 227 1.6 14.5 0.00 0.00 0.00 54 1017.8
20260902191546 33 360 3.2 12.9 0.00 0.00 0.00 53 1017.9
20260902190054 32 213 3.2 14.5 0.00 0.00 0.00 59 1018.0
20260902184540 32 360 1.6 8.0 0.00 0.00 0.00 59 1018.1
20260902183050 33 360 3.2 12.9 0.00 0.00 0.00 57 1018.2
20260902181544 33 360 1.6 4.8 0.00 0.00 0.00 59 1018.2
20260902180039 32 360 3.2 16.1 0.00 0.00 0.00 59 1018.5
20260902174539 32 360 3.2 20.9 0.00 0.00 0.00 58 1018.7
20260902173040 32 341 1.6 11.3 0.00 0.00 0.00 61 1018.8
20260902171542 31 360 4.8 19.3 0.00 0.00 0.00 60 1018.9
20260902170042 31 194 1.6 8.0 0.00 0.00 0.00 63 1018.9
20260902164544 31 360 1.6 6.4 0.00 0.00 0.00 67 1019.0
20260902163042 31 263 3.2 8.0 0.00 0.00 0.00 65 1019.2
20260902161545 31 0 3.2 8.0 0.00 0.00 0.00 68 1019.3
20260902160047 31 274 3.2 8.0 0.00 0.00 0.00 68 1019.3
20260902154547 30 293 1.6 12.9 0.00 0.00 0.00 69 1019.4
20260902153039 30 360 3.2 9.7 0.00 0.00 0.00 70 1019.5
20260902151539 30 360 3.2 9.7 0.00 0.00 0.00 69 1019.6
20260902150048 29 0 1.6 6.4 0.00 0.00 0.00 72 1019.5
20260902144542 28 360 1.6 6.4 0.00 0.00 0.00 74 1019.5
20260902143043 28 360 1.6 6.4 0.00 0.00 0.00 75 1019.5
20260902141540 27 360 1.6 9.7 0.00 0.00 0.00 76 1019.4
20260902140048 27 360 3.2 12.9 0.00 0.00 0.00 76 1019.4
20260902134546 27 261 1.6 8.0 0.00 0.00 0.00 76 1019.4
20260902133044 26 215 3.2 9.7 0.00 0.00 0.00 78 1019.3
20260902132337 26 360 4.8 9.7 0.00 0.00 0.00 78 1017.0
20260902131542 26 360 1.6 8.0 0.00 0.00 0.00 80 1019.3
20260902130044 25 255 1.6 9.7 0.00 0.00 0.00 82 1019.4
20260902124550 24 248 1.6 6.4 0.00 0.00 0.00 85 1019.2
20260902123043 23 233 1.6 4.8 0.00 0.00 0.00 86 1019.2
20260902121539 23 360 1.6 8.0 0.00 0.00 0.00 88 1019.0
20260902120046 22 206 1.6 6.4 0.00 0.00 0.00 89 1018.9
20260902114541 22 0 1.6 4.8 0.00 0.00 0.00 90 1018.8
20260902111549 22 225 1.6 4.8 0.00 0.00 0.00 89 1018.6
20260902110041 22 219 0.0 4.8 0.00 0.00 0.00 89 1018.6
20260902104543 22 0 0.0 0.0 0.00 0.00 0.00 89 1018.6
20260902103040 22 0 0.0 0.0 0.00 0.00 0.00 88 1018.6
20260902101543 22 0 0.0 0.0 0.00 0.00 0.00 88 1018.5
20260902100040 22 0 0.0 0.0 0.00 0.00 0.00 88 1018.5
20260902094547 22 0 0.0 3.2 0.00 0.00 0.00 88 1018.5
20260902093046 22 197 0.0 3.2 0.00 0.00 0.00 87 1018.4
20260902091545 22 0 0.0 3.2 0.00 0.00 0.00 87 1018.3
20260902090040 23 0 0.0 4.8 0.00 0.00 0.00 86 1018.2
20260902084541 23 0 0.0 3.2 0.00 0.00 0.00 86 1018.1
20260902083042 23 223 0.0 4.8 0.00 0.00 0.00 85 1018.0
20260902081550 23 216 1.6 4.8 0.00 0.00 0.00 85 1017.9
20260902080038 23 223 0.0 3.2 0.00 0.00 0.00 85 1017.8
20260902074541 23 218 0.0 3.2 0.00 0.00 0.00 85 1017.8
20260902073039 23 0 0.0 3.2 0.00 0.00 0.00 85 1017.7
20260902071542 23 0 0.0 4.8 0.00 0.00 0.00 84 1017.6
20260902070047 23 0 0.0 4.8 0.00 0.00 0.00 84 1017.7
20260902064541 23 0 1.6 4.8 0.00 0.00 0.00 84 1017.8
20260902063046 23 360 0.0 3.2 0.00 0.00 0.00 84 1017.7
20260902061546 23 0 0.0 1.6 0.00 0.00 0.00 83 1017.7
20260902060044 24 0 0.0 3.2 0.00 0.00 0.00 83 1017.8
20260902054538 24 0 0.0 4.8 0.00 0.00 0.00 83 1017.7
20260902053039 24 229 1.6 4.8 0.00 0.00 0.00 83 1017.8
20260902051546 24 360 1.6 4.8 0.00 0.00 0.00 83 1017.8
20260902050041 24 223 0.0 3.2 0.00 0.00 0.00 83 1017.8
20260902044540 24 0 0.0 1.6 0.00 0.00 0.00 82 1017.8